Home   Weather   Bridgeport   Past weeks

Flag for USA Past Weather in Bridgeport, Connecticut, USA — Yesterday and Last 2 Weeks

Now
56 °F

Low clouds.


Feels Like: 53 °F
Forecast: 53 / 60 °F
Wind: 12 mph from Northeast

Location: Sikorsky Memorial Airport

Current Time: Apr 26, 2017 at 11:56:07 am

Latest Report: Apr 26, 2017 at 10:52 am


Visibility: 10 mi

Pressure: 29.78 "Hg

Humidity: 90%

Dew Point: 53 °F

Location of BridgeportLocation

Past Weather in Bridgeport — Graph

°F

Bridgeport Temperature Yesterday

Maximum temperature yesterday: 58 °F (at 11:52 am)
Minimum temperature yesterday: 51 °F (at 12:52 am)
Average temperature yesterday: 54 °F

High & Low Weather Summary for the Past Weeks

 TemperatureHumidityPressure
High75 °F (Apr 17, 2:52 pm)96% (Apr 22, 12:00 am)30.55 "Hg (Apr 22, 12:00 am)
Low42 °F (Apr 15, 5:52 am)20% (Apr 17, 3:52 pm)29.74 "Hg (Apr 16, 6:52 pm)
Average54 °F70%30.12 "Hg
* Reported Apr 11 10:52 am — Apr 26 10:33 am, Bridgeport, Weather by CustomWeather, © 2017

Note: Actual official high and low records may vary slightly from our data, if they occured in-between our weather recording intervals... More about our weather records

Advertising

Bridgeport Weather History for the Previous 24 Hours

Scroll right to see more
 ConditionsComfort  
Time TempWeatherWind HumidityBarometerVisibility
10:33 am
Wed, Apr 26
56 °FLow clouds.13 mph87%29.78 "Hg10 mi
9:52 am55 °FLight rain. Fog.13 mph87%29.77 "Hg2 mi
9:41 am54 °FRain. Fog.14 mph90%29.78 "Hg2 mi
8:52 am54 °FLight rain. Overcast.16 mph86%29.78 "Hg9 mi
8:03 am54 °FMore clouds than sun.18 mph86%29.77 "Hg10 mi
6:52 am53 °FLight rain. Fog.16 mph89%29.76 "Hg6 mi
5:52 am53 °FLight rain. Fog.15 mph89%29.78 "Hg4 mi
5:30 am53 °FLight rain. Fog.16 mph89%29.79 "Hg4 mi
5:09 am53 °FLight rain. Fog.14 mph93%29.79 "Hg2 mi
4:52 am54 °FLight rain. Fog.13 mph90%29.78 "Hg2 mi
4:01 am54 °FLight rain. Fog.10 mph90%29.78 "Hg4 mi
2:52 am55 °FLow clouds.15 mph87%29.81 "Hg10 mi
2:32 am55 °FLight rain. Overcast.14 mph90%29.81 "Hg7 mi
1:52 am55 °FLight rain. Fog.14 mph90%29.83 "Hg5 mi
12:52 am55 °FLight rain. Low clouds.14 mph87%29.87 "Hg10 mi
12:37 am55 °FLow clouds.14 mph90%29.88 "Hg10 mi
12:20 am55 °FLight rain. Mostly cloudy.15 mph87%29.89 "Hg10 mi
11:52 pm
Tue, Apr 25
54 °FLight rain. Fog.15 mph90%29.90 "Hg4 mi
10:52 pm55 °FLight rain. Fog.14 mph90%29.92 "Hg5 mi
9:52 pm54 °FLight rain. Fog.16 mph90%29.94 "Hg4 mi
9:35 pm54 °FRain. Fog.17 mph90%29.95 "Hg3 mi
8:59 pm54 °FLight rain. Fog.18 mph90%29.96 "Hg2 mi
7:52 pm53 °FLight rain. Fog.15 mph89%29.96 "Hg4 mi
7:11 pm54 °FLight rain. Fog.16 mph86%29.98 "Hg2 mi
7:01 pm54 °FLight rain. Fog.17 mph86%29.98 "Hg3 mi
6:28 pm54 °FHeavy rain. Fog.17 mph90%29.99 "Hg2 mi
6:08 pm55 °FLight rain. Low clouds.15 mph87%30.00 "Hg8 mi
5:35 pm56 °FLight rain. Overcast.16 mph84%30.00 "Hg2 mi
4:52 pm56 °FLight rain. Overcast.16 mph87%30.01 "Hg10 mi
3:52 pm57 °FLight rain. Overcast.15 mph83%30.04 "Hg7 mi
2:52 pm57 °FLight rain. Overcast.13 mph87%30.05 "Hg7 mi
1:52 pm58 °FOvercast.13 mph84%30.07 "Hg10 mi
12:52 pm58 °FLight rain. Overcast.15 mph81%30.08 "Hg4 mi
11:52 am58 °FLight rain. Overcast.13 mph78%30.12 "Hg6 mi
Weather by CustomWeather, © 2017

See weather overviewHow to use our weather pages